Вернуться в каталог

COSMOS 2251 DEB

АктивенLEO
NORAD 34760·DEBRIS·🇷🇺 Russia

Запущен Jun 16, 1993 с Plesetsk Cosmodrome

Loading…

Ближайшие Пролёты (ближайшие 24 часа)

TLE

СвежийSource: Space-Track

Эпоха: Sep 14, 2026, 05:25 UTC

1 34760U 93036AAE 26257.22587897  .00000437  00000-0  20671-3 0  9994
2 34760  74.0635 170.4817 0096340 157.5040 355.6827 14.20094512905984

Отслеживайте COSMOS 2251 DEB в реальном времени с AllMySat

Download on the App Store